This is the latest recevied weather packets stored in our database for station/object W8AN. If no packets are shown the sender has not sent any weather packets the latest 10 day(s).
| Time | Temp. | Humidity | Pressure | Rain* | Wind** | Luminosity | Snow |
|---|---|---|---|---|---|---|---|
| 1777594011 | 11.11° C | 50% | 4268.8 hPa | 0 mm | - | 14 W/m² | - |
| 1777593707 | 11.11° C | 53% | 4268.7 hPa | 0 mm | - | 14 W/m² | - |
| 1777593403 | 11.11° C | 51% | 4269.1 hPa | 0 mm | - | 12 W/m² | - |
| 1777593102 | 11.67° C | 47% | 4268.9 hPa | 0 mm | - | 9 W/m² | - |
| 1777592801 | 11.67° C | 45% | 4268.7 hPa | 0 mm | - | 11 W/m² | - |
| 1777592498 | 11.67° C | 45% | 4268.7 hPa | 0 mm | - | 14 W/m² | - |
| 1777592193 | 11.67° C | 44% | 4268.8 hPa | 0 mm | - | 17 W/m² | - |
| 1777591890 | 11.67° C | 43% | 4268.9 hPa | 0 mm | - | 27 W/m² | - |
| 1777591586 | 11.11° C | 48% | 4268.7 hPa | 0 mm | - | 31 W/m² | - |
| 1777591283 | 11.67° C | 45% | 4268.8 hPa | 0 mm | - | 32 W/m² | - |
| 1777590978 | 11.67° C | 42% | 4268.7 hPa | 0 mm | - | 38 W/m² | - |
| 1777590674 | 12.22° C | 42% | 4268.7 hPa | 0 mm | - | 44 W/m² | - |
| 1777590370 | 12.78° C | 38% | 4268.9 hPa | 0 mm | - | 60 W/m² | - |
| 1777590068 | 13.33° C | 40% | 4268.8 hPa | 0 mm | - | 72 W/m² | - |
| 1777589764 | 13.33° C | 41% | 4268.9 hPa | 0 mm | - | 123 W/m² | - |
| 1777589463 | 12.78° C | 40% | 4269 hPa | 0 mm | - | 152 W/m² | - |
| 1777589158 | 13.33° C | 40% | 4268.9 hPa | 0 mm | - | 170 W/m² | - |
| 1777588854 | 13.33° C | 39% | 4269 hPa | 0 mm | - | 208 W/m² | - |
| 1777588550 | 12.78° C | 42% | 4269 hPa | 0 mm | - | 155 W/m² | - |
| 1777588246 | 13.33° C | 44% | 4269.2 hPa | 0 mm | - | 76 W/m² | - |
| 1777587941 | 13.33° C | 41% | 4268.7 hPa | 0 mm | - | 221 W/m² | - |
| 1777587638 | 13.33° C | 41% | 4268.9 hPa | 0 mm | - | 248 W/m² | - |
| 1777587338 | 13.33° C | 43% | 4268.9 hPa | 0 mm | - | 269 W/m² | - |
| 1777587033 | 13.33° C | 42% | 4268.7 hPa | 0 mm | - | 238 W/m² | - |
| 1777586729 | 13.33° C | 42% | 4268.8 hPa | 0 mm | - | 311 W/m² | - |
* Rain latest hour (hover to see other rain measurements)
** Current wind speed in m/s (hover to see current wind gust speed)